[Iaude] MPEC G69: 2024 FN5 [a=1.45,e=0.42,i=36.1,H=21.3]
    mpec at cfa.harvard.edu 
    mpec at cfa.harvard.edu
       
    Fri Apr  5 09:40:10 EDT 2024
    
    
  
M.P.E.C. 2024-G69                                 Issued 2024 April 5, 13:38 UT
     The Minor Planet Electronic Circulars contain information on unusual
         minor planets, routine data on comets and natural satellites,
         and occasional editorial announcements.  They are published
    on behalf of Division F of the International Astronomical Union by the
          Minor Planet Center, Smithsonian Astrophysical Observatory,
                          Cambridge, MA 02138, U.S.A.
			  
             Prepared using the Tamkin Foundation Computer Network
                              MPC at CFA.HARVARD.EDU
            URL https://www.minorplanetcenter.net/    ISSN 1523-6714
                                    2024 FN5                                    
Observations:
     K24F05N* C2024 03 17.42842911 09 59.387+02 40 31.50         22.31wXEG069F51
     K24F05N  C2024 03 17.44058311 09 58.251+02 40 59.52         22.06wXEG069F51
     K24F05N  C2024 03 17.46483811 09 56.006+02 41 54.88         22.39wXEG069F51
     K24F05N  C2024 03 18.45018311 08 29.690+03 19 10.38         22.67GVEG069F51
     K24F05N  C2024 03 18.45099611 08 29.614+03 19 12.11         21.43GVEG069F51
     K24F05N 1C2024 03 19.29549611 07 17.696+03 50 39.91         23.56GVEG069T12
     K24F05N 1C2024 03 19.29954611 07 17.342+03 50 48.99         23.02GVEG069T12
     K24F05N 3C2024 04 05.30877110 48 59.770+12 32 21.83         23.38GVEG069T14
     K24F05N 3C2024 04 05.31032610 48 59.698+12 32 24.06         23.23GVEG069T14
     K24F05N 3C2024 04 05.31188010 48 59.626+12 32 26.25         23.36GVEG069T14
Observer details:
F51 Pan-STARRS 1, Haleakala.  Observers J. Herman, T. Lowe, P. Minguez, A.
    Schultz, I. Smith.  Measurers K. Chambers, T. de Boer, J. Fairlamb, H.
    Gao, M. Huber, C.-C. Lin, E. Magnier, Y. Ramanjooloo, R. Wainscoat, R.
    Weryk.  1.8-m Ritchey-Chretien + CCD.
T12 University of Hawaii 88-inch telescope, Maunakea.  Observer J. Fairlamb.
    Measurers R. Weryk, J. Fairlamb, Y. Ramanjooloo, R. Wainscoat.  2.24-m
    f/10.1 reflector + CCD.
T14 Canada-France-Hawaii Telescope, Maunakea.  Observers R. Wainscoat, L.
    Wells, T. Burdullis.  Measurers R. Weryk, R. Wainscoat.  3.6-m f/4.1
    reflector + CCD.
Orbital elements:
2024 FN5                                                 Earth MOID = 0.1199 AU
Epoch 2024 Mar. 31.0 TT = JDT 2460400.5                 MPC                     
M 113.40978              (2000.0)            P               Q                  
n   0.56548703     Peri.  214.38423     +0.86696572     -0.49482557             
a   1.4482858      Node   174.22667     +0.47265179     +0.85412300             
e   0.4237871      Incl.   36.13129     -0.15802127     -0.16006731             
P   1.74           H   21.32          G   0.15           U   8                  
Residuals in seconds of arc
240317 F51  0.0   0.2-    240318 F51  0.0   0.1+    240405 T14  0.0   0.0
240317 F51  0.1-  0.1+    240319 T12  0.1-  0.1-    240405 T14  0.0   0.0
240317 F51  0.0   0.0     240319 T12  0.0   0.1-
240318 F51  0.1+  0.2+    240405 T14  0.0   0.0
Ephemeris:
2024 FN5                 a,e,i = 1.45, 0.42, 36                  q = 0.8345
Date    TT    R. A. (2000) Decl.     Delta      r    Elong.  Phase     V
2024 03 06    11 28 22.2 -04 59 41   0.7748  1.7574   168.0     6.7    22.5
...
2024 03 21    11 04 55.5 +04 52 49   0.8384  1.8186   164.9     8.2    22.8
...
2024 03 29    10 55 20.3 +09 16 12   0.9024  1.8484   153.0    14.2    23.2
...
2024 04 04    10 49 57.2 +12 00 24   0.9617  1.8695   144.7    18.0    23.5
2024 04 05    10 49 12.8 +12 24 57   0.9724  1.8729   143.4    18.6    23.6
2024 04 06    10 48 31.2 +12 48 42   0.9834  1.8762   142.0    19.2    23.6
...
2024 04 12    10 45 18.0 +14 54 58   1.0531  1.8958   134.5    22.2    23.9
...
2024 04 20    10 43 25.8 +17 03 38   1.1550  1.9201   125.4    25.3    24.2
...
2024 05 05    10 46 20.6 +19 27 16   1.3639  1.9605   110.6    28.8    24.7
A. U. Tomatic                (C) Copyright 2024 MPC           M.P.E.C. 2024-G69
    
    
More information about the Iaude
mailing list